SCP
0 0 0 0 0 0 0 0 0 0 0 0 0 0 0 0 0 0 0 0 0 0 0 0 0 0 0 0 0 0 0 0 0 0 0 0 0 0 0 0 0 0 0
0 0 0 0 0 0 0 0 0 0 0 0 0 0 0 0 0 0 0 0 0 0 0 0 0 0 0 0 0 0 0 0 0 0 0 0 0 0 0 0 0 0 0
0 0 0 0 0 0 0 0 0 0 0 0 0 0 0 0 0 0 0 0 0 0 0 0 0 0 0 0 0 0 0 0 0 0 0 0 0 0 0 0 0 0 0
0 0 0 0 0 0 0 0 0 0 0 0 0 0 0 0 0 0 0 0 0 0 0 0 0 0 0 0 0 0 0 0 0 0 0 0 0 0 0 0 0 0 0
0 0 0 0 0 0 0 0 0 0 0 0 0 0 0 0 0 0 0 0 0 0 0 0 0 0 0 0 0 0 0 0 0 0 0 0 0 0 0 0 0 0 0
0 0 0 0 0 0 0 0 0 0 0 0 0 0 0 0 0 0 0 0 0 0 0 0 0 0 0 0 0 0 0 0 0 0 0 0 0 0 0 0 0 0 0
0 0 0 0 0 0 0 0 0 0 0 0 0 0 0 0 0 0 0 0 0 0 0 0 0 0 0 0 0 0 0 0 0 0 0 0 0 0 0 0 0 0 0
0 0 0 0 0 0 0 0 0 0 0 0 0 0 0 0 0 0 0 0 0 0 0 0 0 0 0 0 0 0 0 0 0 0 0 0 0 0 0 0 0 0 0
0 0 0 0 0 0 0 0 0 0 0 0 0 0 0 0 0 0 0 0 0 0 0 0 0 0 0 0 0 0 0 0 0 0 0 0 0 0 0 0 0 0 0
0 0 0 0 0 0 0 0 0 0 0 0 0 0 0 0 0 0 0 0 0 0 0 0 0 0 0 0 0 0 0 0 0 0 0 0 0 0 0 0 0 0 0
0 0 0 0 0 0 0 0 0 0 0 0 0 0 0 0 0 0 0 0 0 0 0 0 0 0 0 0 0 0 0 0 0 0 0 0 0 0 0 0 0 0 0
0 0 0 0 0 0 0 0 0 0 0 0 0 0 0 0 0 0 0 0 0 0 0 0 0 0 0 0 0 0 0 0 0 0 0 0 0 0 0 0 0 0 0
0 0 0 0 0 0 0 0 0 0 0 0 0 0 0 0 0 0 0 0 0 0 0 0 0 0 0 0 0 0 0 0 0 0 0 0 0 0 0 0 0 0 0
0 0 0 0 0 0 0 0 0 0 0 0 0 0 0 0 0 0 0 0 0 0 0 0 0 0 0 0 0 0 0 0 0 0 0 0 0 0 0 0 0 0 0
0 0 0 0 0 0 0 0 0 0 0 0 0 0 0 0 0 0 0 0 0 0 0 0 0 0 0 0 0 0 0 0 0 0 0 0 0 0 0 0 0 0 0
0 0 0 0 0 0 0 0 0 0 0 0 0 0 0 0 0 0 0 0 0 0 0 0 0 0 0 0 0 0 0 0 0 0 0 0 0 0 0 0 0 0 0
0 0 0 0 0 0 0 0 0 0 0 0 0 0 0 0 0 0 -0 0 0 0 0 0 0 0 0 0 0 0 0 0 0 0 0 0 0 0 0 0 0 0 0
0 0 0 0 0 0 0 0 0 0 0 0 0 0 0 0 0 0 0 0 0 0 0 0 0 0 0 0 0 0 0 0 0 0 0 0 0 0 0 0 0 0 0
0 0 0 0 0 0 0 0 0 0 0 0 0 0 0 0 0 0 0 0 0 0 0 0 0 0 0 0 0 0 0 0 0 0 0 0 0 0 0 0 0 0 0
0 0 0 0 0 0 0 0 0 0 0 0 0 0 0 0 0 0 0 0 0 0 0 0 0 0 0 0 0 0 0 0 0 0 0 0 0 0 0 0 0 0 0
0 0 0 0 0 0 0 0 0 0 0 0 0 0 0 0 0 0 0 0 0 0 0 0 0 0 0 0 0 0 0 0 0 0 0 0 0 0 0 0 0 0 0
0 0 0 0 0 0 0 0 0 0 0 0 0 0 0 0 0 0 0 0 0 0 0 0 0 0 0 0 0 0 0 0 0 0 0 0 0 0 0 0 0 0 0
0 0 0 0 0 0 0 0 0 0 0 0 0 0 0 0 0 0 0 0 0 0 0 0 0 0 0 0 0 0 0 0 0 0 0 0 0 0 0 0 0 0 0
0 0 0 0 0 0 0 0 0 0 0 0 0 0 0 0 0 0 0 0 0 0 0 0 0 0 0 0 0 0 0 -0 -0 0 0 0 0 0 0 0 0 0 0
0 0 0 0 0 0 0 0 0 0 0 0 0 0 0 0 0 0 0 0 0 0 0 0 0 0 0 0 0 0 0 -0 0 0 0 0 0 0 0 0 0 0 0
0 0 0 0 0 0 0 0 0 0 0 0 0 0 0 0 0 0 0 0 0 0 0 0 0 0 0 0 0 0 0 0 0 0 0 0 0 0 0 0 0 0 0
Wind_Speed
7 7 8 7 7 7 7 7 6 6 6 6 6 6 6 6 5 6 6 5 6 6 5 6 6 7 6 5 5 5 6 7 10 8 7 7 6 5 5 4 5 5 7
7 7 8 7 7 8 8 7 7 7 7 7 7 7 7 7 7 7 7 7 7 8 8 8 9 7 8 7 6 7 7 7 10 12 9 8 7 6 5 4 4 3 5
7 7 8 8 8 8 8 8 8 8 8 8 8 8 8 8 8 8 9 9 9 9 9 10 10 10 9 8 8 8 8 8 9 10 9 7 6 5 6 5 4 2 4
7 8 8 8 8 8 8 8 8 8 9 9 9 9 9 9 9 9 10 10 11 11 11 11 10 10 10 9 8 9 9 10 9 9 8 7 6 6 4 5 5 4 2
7 8 8 7 8 8 8 9 8 9 10 10 10 10 10 9 9 9 10 11 12 12 13 13 13 13 12 9 8 9 9 8 8 8 8 7 6 5 4 3 3 4 3
7 7 7 8 8 8 8 8 9 10 10 10 11 11 11 10 12 13 9 11 11 12 13 12 12 13 15 15 14 12 9 7 7 6 6 7 6 4 3 2 2 3 3
7 7 7 8 8 8 8 9 9 10 10 10 11 11 11 11 12 12 11 10 11 11 11 10 10 10 11 13 13 12 12 11 6 4 7 6 6 4 2 3 2 1 2
7 7 7 7 8 8 8 9 8 8 8 9 10 10 10 10 11 10 8 11 11 11 11 11 10 10 9 8 10 11 10 9 6 6 7 5 5 4 1 1 2 2 3
7 7 7 7 7 8 8 8 7 7 8 8 9 9 10 9 10 9 6 9 10 11 11 11 10 11 8 5 8 9 9 8 8 8 7 6 5 3 3 2 2 2 2
7 7 7 7 7 8 8 8 7 7 8 8 9 9 9 9 10 10 7 7 9 9 10 10 13 10 8 7 7 8 8 7 6 7 5 5 5 4 2 3 3 2 1
7 7 7 7 7 8 8 7 7 7 8 9 9 9 9 8 9 11 11 6 7 8 8 8 8 8 8 8 5 7 5 2 4 5 5 4 4 3 3 1 2 4 4
7 8 7 7 6 7 7 7 7 7 8 8 8 8 7 7 8 9 10 10 7 7 7 8 8 7 7 7 6 4 2 4 2 3 3 3 3 3 3 2 2 3 3
8 8 7 7 6 6 6 7 6 5 5 6 6 7 7 7 7 7 7 7 8 6 7 8 5 3 5 6 5 1 3 0 3 3 4 3 3 3 1 1 1 2 3
8 7 7 7 7 6 4 5 5 4 4 5 6 6 6 6 5 4 5 6 6 6 6 6 4 2 3 4 3 2 2 5 4 3 3 3 2 1 1 1 1 1 2
7 7 7 7 7 6 7 7 6 8 7 5 5 4 5 7 7 8 6 5 5 5 1 4 4 4 4 4 4 4 3 3 2 3 2 2 2 2 2 1 2 3 3
7 6 5 6 5 6 7 8 12 10 9 10 10 8 8 8 6 6 6 5 4 4 3 3 3 3 4 3 3 3 3 3 3 2 2 2 2 3 3 2 3 3 3
7 6 5 5 6 5 6 6 7 7 7 8 7 8 7 5 4 4 3 1 1 4 0 3 3 3 3 2 2 2 3 3 2 2 3 3 3 3 3 3 3 4 4
7 6 5 5 5 5 5 5 6 6 7 6 5 5 4 3 2 0 2 4 3 2 2 3 2 2 2 2 2 2 2 1 1 2 3 3 3 4 4 4 4 5 5
6 5 5 5 5 5 5 5 5 5 5 5 6 6 5 4 4 3 5 3 2 3 3 2 2 2 2 2 2 2 2 2 3 3 3 3 4 4 4 5 4 3 5
6 5 3 4 5 5 4 4 4 4 5 4 4 4 5 5 4 4 2 1 2 3 3 2 2 2 2 2 1 1 1 1 2 3 3 3 4 4 5 6 6 6 5
7 7 5 4 5 4 4 4 4 4 4 4 4 5 4 1 2 2 2 2 2 2 2 2 1 1 1 1 2 2 3 3 3 3 4 4 4 5 5 5 6 6 6
6 6 6 5 5 4 4 4 4 4 4 3 4 6 3 3 1 2 2 2 2 1 1 1 2 1 2 3 3 3 3 3 3 3 4 4 4 5 5 5 5 6 6
6 6 5 5 5 5 4 4 3 3 3 3 3 3 3 1 1 1 1 1 1 0 0 1 2 1 1 1 2 3 4 4 4 4 5 6 5 5 5 5 6 6 6
6 5 5 5 5 5 4 4 3 3 3 2 2 1 1 1 1 0 0 1 1 1 1 1 2 2 2 2 2 2 2 4 5 4 5 6 7 6 6 6 7 7 7
6 5 5 4 4 4 4 4 3 3 3 2 2 2 2 1 1 1 1 1 2 2 2 2 2 2 2 3 3 1 5 2 2 6 7 6 7 7 7 8 7 8 8
6 6 5 4 4 4 4 4 3 3 3 3 2 2 2 2 2 2 2 2 2 2 3 3 3 3 4 4 2 2 4 3 3 4 7 7 7 7 7 8 9 9 9
Wind_Direction
54 55 57 56 54 55 57 56 52 53 52 53 52 51 49 49 56 65 70 74 83 84 86 91 99 106 114 121 124 124 122 121 123 128 131 135 143 143 144 151 150 167 139
62 64 63 60 59 60 62 60 58 58 57 58 60 59 56 56 60 70 75 78 81 84 85 88 94 101 102 105 109 111 112 121 129 132 137 142 144 144 143 164 154 167 140
70 70 67 63 62 62 64 63 62 64 63 61 62 63 61 61 66 71 76 78 79 81 84 89 93 97 99 103 109 111 116 119 125 132 133 135 143 144 155 160 147 159 154
71 71 68 66 67 69 70 67 64 66 68 66 63 64 65 65 67 72 77 79 80 79 79 79 82 89 96 104 105 111 114 119 125 129 133 141 142 151 169 159 153 160 165
78 75 72 73 74 74 73 72 69 67 69 68 67 65 65 64 56 63 77 81 82 83 81 78 76 76 69 75 96 107 116 123 128 131 136 140 137 156 157 156 147 156 150
84 83 82 81 78 76 76 77 75 72 69 67 66 65 62 60 45 45 59 80 82 84 87 89 93 89 83 75 72 72 78 104 115 127 126 122 127 130 115 149 153 170 149
90 86 84 83 82 82 83 81 77 76 75 73 71 71 71 59 47 50 50 75 79 80 82 85 88 93 98 99 95 92 76 63 64 78 102 104 114 104 119 135 96 41 55
93 90 90 89 89 88 87 84 80 78 77 77 77 78 78 62 46 49 54 81 81 81 82 84 87 87 80 90 101 96 93 81 69 80 87 87 90 92 99 97 135 175 179
96 93 92 92 95 96 93 91 88 86 84 83 80 80 79 68 41 32 40 91 86 81 78 75 82 87 59 51 99 101 99 101 88 72 65 69 61 35 334 254 199 214 149
97 93 92 92 93 95 97 97 95 92 89 86 79 77 77 70 42 26 17 91 93 94 91 85 68 64 46 30 90 100 101 101 109 123 126 151 152 151 238 297 332 348 29
101 100 95 93 94 95 97 98 102 99 93 91 89 83 76 70 62 40 26 60 83 91 92 89 76 57 52 37 45 78 75 75 123 134 136 138 142 146 156 120 355 338 353
109 106 102 100 97 97 99 101 102 105 105 102 96 91 87 78 61 57 46 39 32 81 82 85 86 74 67 51 61 67 323 277 136 117 109 104 96 83 70 47 25 350 337
114 108 103 99 94 100 107 110 110 109 106 109 107 101 96 97 97 87 75 59 41 65 74 73 84 113 134 106 93 345 268 136 81 84 80 76 72 62 53 144 172 223 242
114 113 112 109 107 101 96 94 94 92 93 100 97 99 103 100 89 95 119 125 132 120 112 123 140 93 103 101 145 158 69 51 39 63 61 57 59 76 23 17 358 313 285
117 115 115 110 104 97 77 53 58 58 41 49 72 89 89 86 55 25 20 50 50 60 82 137 134 129 118 103 94 82 84 95 68 50 43 36 33 28 18 12 334 318 321
127 127 124 120 115 113 110 96 57 61 64 56 42 38 75 72 71 55 53 48 32 339 309 103 97 91 87 90 94 98 86 60 42 31 27 25 16 5 359 346 333 330 327
128 128 127 123 124 120 119 122 119 100 80 72 60 53 62 75 73 69 71 61 296 292 236 87 80 72 67 65 68 70 67 58 17 3 11 6 357 352 346 342 348 343 334
130 128 130 127 130 129 129 131 130 131 131 124 108 92 95 100 97 103 277 262 187 187 75 74 78 77 66 45 42 41 40 46 23 359 1 353 346 338 337 340 348 350 334
137 131 128 126 131 128 130 126 120 118 118 122 131 137 155 172 187 231 260 262 73 75 71 69 63 57 50 48 39 33 5 0 2 334 342 342 336 328 331 332 332 335 300
118 100 135 140 136 138 137 131 128 128 126 128 133 126 152 186 170 152 175 66 58 65 55 61 60 43 28 16 11 341 316 324 312 302 326 325 324 321 321 321 322 321 318
137 138 172 168 143 138 137 132 133 136 132 135 116 81 358 305 96 94 102 92 62 60 56 36 53 62 9 320 345 348 324 325 326 323 320 318 317 315 311 309 309 313 319
143 151 160 141 137 137 137 144 145 140 137 138 134 141 199 251 106 98 95 91 85 72 58 347 334 25 13 357 353 321 317 324 330 333 319 312 306 304 305 307 312 317 316
149 150 147 144 142 141 181 161 151 152 150 148 146 149 172 179 112 100 95 106 122 112 98 265 290 321 37 28 333 315 328 348 348 341 317 307 306 303 303 307 308 308 314
156 160 158 157 164 173 170 162 167 167 165 164 170 174 166 181 254 176 225 207 208 215 232 253 287 329 325 289 276 277 20 10 334 314 310 305 303 305 308 307 305 312 315
168 169 168 169 174 176 174 174 172 175 180 187 193 198 197 203 207 205 203 207 223 235 236 247 253 255 258 262 271 1 83 72 317 315 301 288 291 296 299 301 304 309 311
174 172 176 176 181 186 187 189 188 193 201 202 207 211 222 225 217 215 213 221 233 224 233 241 240 249 250 244 229 136 149 194 235 269 287 287 288 294 306 303 304 303 304